LUCH 5B                 
1 38977U 12061A   19266.28476649 -.00000127  00000-0  00000+0 0  9994
2 38977   5.1956  69.2846 0000775  54.8705 325.7119  1.00274713 25522
YAMAL 300K              
1 38978U 12061B   19266.46896659  .00000060  00000-0  00000+0 0  9997
2 38978   0.0012 180.9200 0000514 127.6582  45.2298  1.00270773 25218
BREEZE-M DEB [TANK]     
1 38979U 12061C   19264.26395635 -.00000102  00000-0 -10178-2 0  9991
2 38979  48.1220  68.2899 7079830 245.7268  28.5634  2.27825817 56860
BREEZE-M R/B            
1 38980U 12061D   19264.99256839 -.00000161  00000-0  00000+0 0  9999
2 38980   4.9069  59.7201 0779712  57.8314 309.6701  1.12486695 27987